Location: Castillon
(43.1358°N, 0.8654°E)
Time: 19:10:18
(UTC+00:00)

USA 267 - Pass Details

Date: 24 January 2021
Orbit: 1102 x 1106 km, 123.0° (Epoch: 22 February)

Event Time Altitude Azimuth Distance (km) Brightness Sun altitude
Exits shadow 18:41:53 24° 111° (ESE) 2,095 4.2 -18.8°
Maximum altitude 18:42:53 25° 124° (SE) 2,053 4.3 -19.0°
Drops below altitude 10° 18:48:05 10° 178° (S) 2,952 5.6 -19.9°
Sets 18:51:04 0° 191° (S) 3,906 6.4 -20.4°
